Tracking 29932 objects as of 3-Dec-2024
HD Live streaming from Space Station
objects crossing your sky now

STARLINK-30090

Track STARLINK-30090 now!
10-day predictions
STARLINK-30090 is classified as:


NORAD ID: 56293
Int'l Code: 2023-056H
Perigee: 564.8 km
Apogee: 567.6 km
Inclination: 43.0 °
Period: 95.8 minutes
Semi major axis: 6937 km
RCS: Unknown
Launch date: April 19, 2023
Source: United States (US)
Launch site: AIR FORCE EASTERN TEST RANGE (AFETR)
Your satellite tracking list
Your tracking list is empty




NASA's NSSDC Master Catalog

Two Line Element Set (TLE):
1 56293U 23056H   24338.03254116  .00000914  00000-0  82731-4 0  9992
2 56293  43.0033 199.2108 0002017 274.0425  86.0186 15.02532359 89971
Source of the keplerian elements: AFSPC